Location: ?????
(37.7324°N, 23.9257°E)
Time: 06:38:38
(UTC+00:00)

Cosmos 1709 Rocket - Pass Details

Date: 29 November 2020
Orbit: 947 x 1003 km, 82.9° (Epoch: 17 January)

Event Time Altitude Azimuth Distance (km) Brightness Sun altitude
Rises 03:10:31 0° 197° (SSW) 3,698 7.0 -24.9°
Reaches altitude 10° 03:13:04 10° 201° (SSW) 2,758 6.2 -24.4°
Maximum altitude 03:19:18 57° 279° (W) 1,167 4.0 -23.2°
Drops below altitude 10° 03:25:35 10° 358° (N) 2,781 6.3 -22.0°
Sets 03:28:11 0° 3° (N) 3,733 7.0 -21.5°
